SCP
0 0 0 0 0 0 0 0 0 0 0 0 0 0 0 0 0 0 0 0 0 0 0 1 1 1 1 1 0 0 0 0 0 0 0 0 0 0 0 0 0 0 0 0 0 0 0 0 0
0 0 0 0 0 0 0 0 0 0 0 0 0 0 0 0 0 0 0 0 0 0 0 1 1 1 1 1 1 0 0 0 0 0 0 0 0 0 0 0 0 0 0 0 0 0 0 0 0
0 0 0 0 0 0 0 0 0 0 0 0 0 0 0 0 0 0 0 0 0 0 0 1 1 1 1 1 1 0 0 0 0 0 0 0 0 0 0 0 0 0 0 0 0 0 0 0 0
0 0 0 0 0 0 0 0 0 0 0 0 0 0 0 0 0 0 0 0 0 0 0 1 1 1 1 1 1 1 0 0 0 0 0 0 0 0 0 0 0 0 0 0 0 0 0 0 0
0 0 0 0 0 0 0 0 0 0 0 0 0 0 0 0 0 0 0 0 0 0 0 0 1 1 1 1 1 0 0 0 0 0 0 0 0 0 0 0 0 0 0 0 0 0 0 0 0
0 0 0 0 0 0 0 0 0 0 0 0 0 0 0 0 0 1 0 0 0 0 0 0 1 1 1 1 0 0 0 0 0 0 0 0 0 0 0 0 0 0 0 0 0 0 0 0 0
0 0 0 0 0 0 0 0 0 0 0 0 0 0 0 0 0 1 1 0 0 0 0 0 0 0 0 0 0 0 0 0 0 0 0 0 0 0 0 0 0 0 0 0 0 0 0 0 0
0 0 0 0 0 0 0 0 0 0 0 0 0 0 0 0 0 1 1 0 0 0 0 0 0 0 0 0 0 0 0 0 0 0 0 0 0 0 0 0 0 0 0 0 0 0 0 0 0
0 0 0 0 0 0 0 0 0 0 0 0 0 0 0 0 1 1 1 0 0 0 0 0 0 0 0 0 0 0 0 0 0 0 0 0 0 0 0 0 0 0 0 0 0 0 0 0 0
0 0 0 0 0 0 0 0 0 0 0 0 0 0 0 0 0 0 0 0 0 0 0 0 0 0 0 0 0 0 0 0 0 0 0 0 0 0 0 0 0 0 0 0 0 0 0 0 0
0 0 0 0 0 0 0 0 0 0 0 0 0 0 0 0 0 0 0 0 0 0 0 0 0 0 0 0 0 0 0 0 0 0 0 0 0 0 0 0 0 0 0 0 0 0 0 0 0
0 0 0 0 0 0 0 0 0 0 0 0 0 0 0 0 0 0 0 0 0 0 0 0 0 0 0 0 0 0 0 0 0 0 0 0 0 0 0 0 0 0 0 0 0 0 0 0 0
0 0 0 0 0 0 0 0 0 0 0 0 0 0 0 0 0 0 0 0 0 0 0 0 0 0 0 0 0 0 0 0 0 0 0 0 0 0 0 0 0 0 0 0 0 0 0 0 0
0 0 0 0 0 0 0 0 0 0 0 0 0 0 0 0 0 0 0 0 0 0 0 0 0 0 0 0 0 0 0 0 0 0 0 0 0 0 0 0 0 0 0 0 0 0 0 0 0
0 0 0 0 0 0 0 0 0 0 0 0 0 0 0 0 0 0 0 0 0 0 0 0 0 0 0 0 0 0 0 0 0 0 0 0 0 0 0 0 0 0 0 0 0 0 0 0 0
0 0 0 0 0 0 0 0 0 0 0 0 0 0 0 0 0 0 0 0 0 0 0 0 0 0 0 0 0 0 0 0 0 0 0 0 0 0 0 0 0 0 0 0 0 0 0 0 0
0 0 0 0 0 0 0 0 0 0 0 0 0 0 0 0 0 0 0 0 0 0 0 0 0 0 0 0 0 0 0 0 0 0 0 0 0 0 0 0 0 0 0 0 0 0 0 0 0
0 0 0 0 0 0 0 0 0 0 0 0 0 0 0 0 0 0 0 0 0 0 0 0 0 0 0 0 0 0 0 0 0 0 0 0 0 0 0 0 0 0 0 0 0 0 0 0 0
0 0 0 0 0 0 0 0 0 0 0 0 0 0 0 0 0 0 0 0 0 0 0 0 0 0 0 0 0 0 0 0 -0 0 0 0 0 0 0 0 0 0 0 0 0 0 0 0 0
0 0 0 0 0 0 0 0 0 0 0 0 0 0 0 0 0 0 0 0 0 0 0 0 0 0 0 0 0 0 0 0 0 0 0 0 0 0 0 0 0 0 0 0 0 0 0 0 0
0 0 0 0 0 0 0 0 0 0 0 0 0 0 0 0 0 0 0 0 0 0 0 0 0 0 0 0 0 0 0 0 0 0 0 0 -0 -0 -0 0 0 0 0 0 0 0 0 0 0
0 0 0 0 0 0 0 0 0 0 0 0 0 0 0 0 0 0 0 0 0 0 0 0 0 0 0 0 0 0 0 0 0 0 0 0 0 0 0 0 0 0 0 0 0 0 0 0 0
0 0 0 0 0 0 0 0 0 0 0 0 0 0 0 0 0 0 0 0 0 0 0 0 0 0 0 0 0 0 0 0 0 0 0 0 0 0 0 0 0 0 0 0 0 0 0 0 0
0 0 0 0 0 0 0 0 0 0 0 0 0 0 0 0 0 0 0 0 0 0 0 0 0 0 0 0 0 0 0 0 0 0 0 0 0 0 0 0 0 0 0 0 0 0 0 0 0
-0 -0 0 0 0 0 0 0 0 0 0 0 0 0 0 0 0 0 0 0 0 0 0 0 0 0 0 0 0 0 0 0 0 0 0 0 0 0 0 0 0 0 0 0 0 0 0 0 0
-0 -0 0 0 0 0 0 0 0 0 0 0 0 0 0 0 0 0 0 0 0 0 0 0 0 0 0 0 0 0 0 0 0 0 0 0 0 0 0 0 0 0 0 0 0 0 0 0 0
0 0 0 0 0 0 0 0 0 0 0 0 0 0 0 0 0 0 0 0 0 0 0 0 0 0 0 0 0 0 0 0 0 0 0 0 0 0 0 0 0 0 0 0 0 0 0 0 0
0 0 0 0 0 0 0 0 0 0 0 0 0 0 0 0 0 0 0 0 0 0 0 0 0 0 0 0 0 0 0 0 0 0 0 0 0 0 0 0 0 0 0 0 0 0 0 0 0
0 0 0 0 0 0 0 0 0 0 0 0 0 0 0 0 0 0 1 1 0 0 0 0 0 0 0 0 0 0 0 0 0 0 0 0 0 0 0 0 0 0 0 0 0 0 0 0 0
0 0 0 0 0 0 0 0 0 0 0 0 0 0 0 0 0 1 1 1 0 0 0 0 0 0 0 0 0 0 0 0 0 0 0 0 0 0 0 0 0 0 0 0 0 0 0 0 0
Wind_Speed
4 3 1 2 4 4 2 3 1 1 2 2 5 8 8 6 5 5 3 11 13 11 8 11 12 13 13 13 12 12 12 11 11 11 12 12 12 11 11 11 11 10 10 10 10 10 11 10 10
2 2 2 4 5 2 4 3 0 1 4 4 6 8 8 6 7 9 6 10 13 12 9 10 13 13 13 12 12 12 11 11 11 11 11 11 11 11 10 10 10 10 9 10 10 9 9 9 8
2 1 3 3 2 3 4 3 1 0 3 4 4 5 5 6 7 7 8 13 11 10 8 11 14 13 13 12 12 11 11 11 10 10 10 10 10 10 10 10 10 9 9 9 9 9 8 8 7
1 3 3 3 2 5 5 5 2 1 3 4 6 6 5 4 6 9 14 14 12 9 8 10 14 13 12 12 12 11 11 10 10 9 10 9 9 9 9 9 9 9 8 8 8 8 8 7 7
3 3 3 2 4 4 3 5 2 2 3 5 8 6 4 4 12 15 14 13 12 9 7 9 13 13 12 12 11 11 10 10 10 9 9 9 8 8 8 8 8 8 8 7 7 6 6 6 6
3 4 2 2 4 3 2 2 1 4 5 6 8 6 3 5 12 13 13 11 11 11 8 8 12 13 11 11 11 10 9 9 9 8 8 8 7 7 7 7 7 7 7 7 6 5 4 5 5
3 2 2 3 3 3 2 0 2 3 4 3 6 7 4 5 8 11 11 10 9 9 8 6 6 8 10 10 10 9 8 8 8 8 8 8 7 7 7 7 8 8 7 6 6 6 5 4 4
5 3 1 2 1 3 3 1 1 3 3 4 5 8 6 7 8 10 9 8 8 7 7 6 5 5 4 5 8 8 8 7 7 7 8 8 7 7 7 6 7 8 7 6 6 6 5 4 4
3 2 3 4 3 4 2 1 0 2 4 3 3 5 8 12 11 10 8 7 7 6 5 5 5 4 3 3 5 6 6 6 6 5 6 6 3 3 4 5 6 7 7 6 6 6 5 4 4
4 3 7 5 4 3 2 1 1 3 5 4 5 6 11 12 11 11 10 9 7 7 5 5 5 5 4 3 3 2 2 2 2 2 2 2 2 2 3 4 6 6 6 6 6 5 5 3 2
3 6 6 5 5 4 2 1 1 5 4 6 8 10 11 10 10 9 9 8 7 7 7 5 5 4 4 2 2 1 1 1 2 2 2 2 2 1 1 1 2 2 3 2 2 2 2 1 1
3 6 5 5 4 3 3 1 1 3 5 8 12 13 11 10 9 9 9 8 7 7 6 5 5 4 4 3 2 2 2 2 2 2 3 3 2 1 1 1 1 1 1 1 1 1 1 1 2
3 5 5 4 3 3 2 2 2 2 4 8 12 11 10 10 8 6 7 7 7 7 6 6 6 5 4 3 2 3 2 2 2 2 2 3 2 2 1 1 1 1 1 1 1 1 1 1 1
4 3 5 4 3 2 3 2 2 3 6 8 11 10 9 9 9 7 7 7 7 7 6 5 6 5 5 3 3 2 2 2 2 2 2 3 3 2 2 1 1 1 1 1 1 1 1 1 0
2 3 5 4 2 3 2 2 2 4 7 8 9 9 8 7 8 8 8 8 8 8 7 6 6 5 5 4 3 2 2 3 2 2 2 3 3 3 2 2 1 1 1 1 1 0 0 0 0
3 2 3 6 2 3 4 3 4 5 8 7 7 7 6 5 6 7 8 8 7 7 6 6 6 5 5 4 3 2 2 3 2 2 2 2 3 3 2 2 1 1 1 1 1 1 1 0 0
3 1 3 6 3 2 4 4 3 4 7 6 6 6 6 5 4 5 7 7 6 7 6 5 5 5 5 4 3 3 2 2 2 2 2 2 2 2 2 2 1 1 1 1 1 1 1 1 1
4 3 3 5 4 1 2 4 3 4 6 7 7 6 6 6 5 5 6 6 6 5 6 5 5 4 4 3 3 2 2 1 1 1 1 2 2 2 2 2 2 1 1 1 1 1 1 1 1
5 3 5 8 6 2 3 3 4 5 5 6 6 5 6 6 4 5 6 6 6 5 5 5 5 4 4 3 3 3 2 1 1 1 2 2 1 1 2 1 1 1 2 2 1 1 1 1 0
5 5 6 7 5 2 2 1 2 3 5 6 6 5 6 5 5 4 4 4 5 5 5 4 4 4 4 3 2 2 2 1 1 1 1 1 1 2 2 1 1 2 1 1 1 1 1 1 1
7 7 7 5 3 1 3 2 1 0 3 4 4 4 5 8 8 6 5 4 4 4 4 4 4 4 3 3 3 2 2 2 1 1 0 1 1 1 2 2 2 2 2 2 2 2 3 1 1
8 9 7 5 1 3 2 1 3 1 2 3 4 4 5 6 6 6 5 4 4 3 3 3 3 4 3 4 4 4 3 2 2 1 1 1 1 2 2 2 2 2 2 2 2 2 2 2 1
8 6 5 4 2 0 1 3 3 1 2 4 5 6 5 6 7 6 5 5 5 4 4 3 3 3 3 3 4 4 2 2 1 1 0 1 1 1 1 2 2 2 2 2 2 2 2 2 2
5 0 2 3 4 0 3 4 3 4 6 5 5 6 6 7 7 6 5 5 4 4 4 4 4 2 3 3 3 4 4 3 2 1 1 1 1 1 1 2 2 2 2 2 2 2 2 2 2
3 5 3 4 3 3 2 3 5 5 5 6 7 7 6 7 7 7 6 6 5 5 4 4 4 2 2 2 2 3 4 4 3 3 2 1 1 1 2 1 1 1 2 2 2 2 1 2 2
4 8 8 5 4 3 2 1 4 2 3 3 5 7 7 7 7 7 7 6 6 6 5 4 4 2 2 2 2 2 3 2 2 2 2 2 2 2 2 1 1 1 2 2 2 1 1 1 2
3 3 7 7 2 1 1 1 3 0 3 4 5 7 7 7 7 7 7 6 6 5 4 5 4 3 2 2 2 2 2 2 2 1 1 1 1 1 1 1 1 1 1 1 2 1 1 1 2
5 6 5 5 4 2 2 4 5 5 4 5 6 8 7 6 7 6 6 6 5 4 3 4 4 3 2 2 2 2 1 1 1 1 1 1 1 0 1 1 1 1 1 2 2 1 1 1 1
1 2 4 4 5 6 3 5 6 8 7 7 8 8 8 8 7 7 6 5 5 5 4 3 3 3 2 2 2 2 1 1 1 1 1 1 0 0 1 1 1 1 1 1 1 1 1 1 1
5 5 7 5 3 3 4 6 2 6 6 7 7 7 7 7 7 7 7 6 5 4 3 3 2 2 2 2 2 2 1 1 1 1 0 1 1 1 1 1 1 1 1 1 2 1 1 1 1
Wind_Direction
213 209 156 71 53 43 298 270 243 8 38 53 76 88 90 82 114 140 145 137 136 139 143 137 133 129 126 123 121 120 118 115 112 111 112 114 113 112 113 114 114 115 119 123 124 123 125 125 123
217 195 74 57 75 36 285 264 288 221 150 112 78 86 81 75 92 113 124 141 138 140 141 138 136 133 130 127 126 125 122 121 119 117 116 117 119 119 120 121 121 120 122 124 124 124 128 130 129
239 197 90 72 101 189 244 245 237 210 125 107 88 69 84 107 110 127 146 143 136 136 138 143 140 138 135 132 131 130 128 127 126 125 123 122 124 125 124 127 128 126 125 124 125 126 130 134 135
87 48 53 73 257 240 228 260 255 73 73 85 98 74 58 83 120 134 139 141 137 138 141 146 141 139 137 136 135 135 135 134 132 130 130 130 131 132 134 135 136 134 134 133 133 136 137 139 143
75 76 51 343 263 267 255 252 237 105 85 84 88 88 62 62 112 126 138 141 137 138 143 146 142 141 141 139 137 140 140 140 139 138 138 138 139 143 144 144 143 143 144 144 145 147 147 147 149
51 70 79 274 271 279 282 259 147 99 111 99 95 99 90 121 125 135 141 141 141 144 146 147 146 144 145 146 148 147 147 146 148 147 146 143 144 150 153 155 155 154 155 158 159 159 166 166 163
126 110 201 230 289 311 285 267 95 122 117 123 121 110 127 142 137 136 136 135 136 141 143 144 145 146 149 152 153 152 151 150 153 156 155 152 151 153 158 163 166 166 166 169 172 177 188 195 188
153 110 290 261 260 270 280 41 88 105 108 114 111 131 160 172 139 126 121 123 129 136 140 141 138 137 143 151 155 155 155 157 159 162 166 163 161 162 165 167 173 174 176 180 185 192 204 214 219
126 90 248 236 215 246 263 92 15 60 98 78 82 133 150 145 132 121 116 119 131 138 136 141 138 138 138 147 160 159 161 159 159 168 172 165 161 166 169 178 181 182 184 189 194 199 207 217 232
128 172 233 221 209 221 257 165 160 79 81 77 79 96 128 139 136 136 138 140 143 147 150 150 146 149 152 162 146 158 163 150 149 160 163 154 150 166 167 186 189 187 188 193 200 203 206 217 228
178 204 238 251 229 213 220 191 128 121 132 152 146 143 146 144 142 143 146 146 151 150 151 153 154 149 148 143 149 150 150 155 155 165 164 145 134 132 136 151 188 188 187 186 203 202 200 201 213
232 252 241 235 227 194 195 160 87 155 179 163 151 147 147 148 153 152 150 149 147 143 150 158 155 147 153 151 154 151 155 165 171 169 160 146 135 128 129 133 143 150 155 161 169 185 204 212 226
251 262 275 266 245 208 181 167 152 193 166 143 138 140 150 150 155 152 146 143 143 146 159 163 156 152 156 149 154 147 154 156 151 145 153 143 136 139 133 135 147 175 157 148 150 185 203 220 231
241 256 278 270 262 216 159 213 136 202 139 133 139 150 159 158 156 146 138 141 148 152 161 155 153 156 152 148 151 150 150 140 125 135 147 143 146 150 149 145 152 177 177 169 171 191 194 218 219
299 335 316 296 258 235 119 347 234 182 138 140 142 151 156 156 153 154 155 150 152 152 150 149 153 148 145 145 149 134 138 133 129 136 132 136 143 147 145 146 166 200 194 176 168 170 137 154 91
354 8 311 291 252 243 126 230 249 161 134 137 137 139 142 149 154 155 148 141 146 143 145 151 148 140 143 141 131 121 129 131 133 132 131 133 137 135 130 137 173 189 178 173 171 170 152 213 229
358 256 261 289 273 216 146 207 219 158 135 136 141 146 149 144 140 146 144 140 141 143 146 145 136 141 143 138 128 122 123 128 130 129 138 148 155 147 143 156 180 172 162 172 192 157 167 197 246
235 236 253 260 270 190 182 202 175 181 152 154 150 148 145 149 158 148 134 132 133 140 144 140 135 138 134 128 116 108 107 115 119 134 150 150 162 157 153 171 180 160 150 167 164 166 178 203 219
219 235 261 261 256 186 196 186 182 182 154 151 150 146 143 147 141 127 127 133 132 132 137 142 141 144 136 131 133 134 141 153 143 158 158 152 154 155 156 182 185 166 171 190 177 160 166 256 127
229 243 261 278 269 177 175 186 180 167 170 158 151 144 144 129 117 123 127 128 136 143 145 141 144 148 147 147 146 143 140 150 147 132 136 168 166 171 165 180 208 187 176 175 171 164 157 251 138
239 221 226 242 299 21 106 9 22 7 102 115 127 138 146 149 147 145 138 141 138 147 152 147 150 152 153 142 121 97 73 54 49 53 30 263 196 185 182 190 195 189 181 201 203 184 172 198 262
244 232 213 221 240 265 149 196 281 198 121 148 166 163 158 152 145 149 149 150 158 166 149 137 145 148 150 141 139 144 147 163 197 199 219 248 230 218 194 188 187 184 184 190 193 171 174 172 215
228 231 213 201 191 252 338 136 263 170 173 203 188 176 163 157 155 157 159 160 153 141 134 134 131 134 139 141 152 151 150 173 180 161 179 281 274 242 211 194 185 188 192 191 182 161 166 173 184
210 86 11 51 80 316 247 156 239 226 198 195 182 171 160 161 162 156 147 134 130 127 121 120 119 127 137 136 153 162 162 164 158 178 202 258 274 270 245 212 202 202 195 191 191 181 178 190 189
128 100 37 1 12 247 244 136 226 225 193 182 178 171 166 163 160 153 146 144 140 135 129 124 116 104 116 130 166 175 172 165 174 191 197 204 240 270 261 228 210 203 202 195 186 184 203 199 197
189 145 160 187 209 262 337 193 248 224 184 170 166 159 153 153 161 158 155 151 149 145 140 132 124 118 114 122 168 167 157 154 170 187 189 196 215 233 243 209 189 193 193 193 183 175 201 193 211
167 174 165 139 145 103 288 286 303 61 118 148 143 140 149 152 154 155 150 144 139 137 138 140 134 125 108 109 100 104 137 145 158 178 187 208 225 217 209 191 183 195 191 185 163 169 201 194 213
166 157 100 116 147 189 233 216 213 205 178 157 154 154 157 153 149 145 141 138 138 133 129 126 131 130 122 120 117 108 107 126 149 146 159 215 256 277 160 183 181 192 197 187 168 170 203 190 221
146 111 113 124 150 155 207 251 208 191 180 168 168 161 156 151 146 138 131 130 130 127 129 122 125 118 115 118 110 104 97 101 110 120 173 193 224 85 145 179 168 174 181 180 161 161 170 176 219
159 170 148 153 203 158 171 255 225 177 172 162 160 153 150 143 136 132 129 124 121 127 135 134 130 126 133 131 113 110 104 99 101 133 184 136 115 148 169 163 152 158 163 161 159 182 193 186 201